User: anonymous   Login
Location: Unspecified
(0.0000°N, 0.0000°E)
Time: 05:21:09
(UTC+00:00)
Language:

COSMOS 2488 - Orbit

View from above orbital plane
View from above orbital plane
View from above satellite
View from above satellite

Ground track
Ground track

The orbit data is extracted from the following two-line orbital elements,

1 39483U 13076A   18146.73535310  .00000021  00000-0  77232-4 0  9999
2 39483  82.4849 203.0534 0020433  35.5381 324.7055 12.42886058200437
Epoch (UTC): 26 May 2018 17:38:54
Eccentricity: 0.0020433
inclination: 82.4849°
perigee height: 1478 km
apogee height: 1510 km
right ascension of ascending node: 203.0534°
argument of perigee: 35.5381°
revolutions per day: 12.42886058
mean anomaly at epoch: 324.7055°
orbit number at epoch: 20043

The dashed part of the orbit path shows where the satellite is in the earth's shadow,  

DLR